www.pogodaiklimat.ru

Погода и климат >> Архив погоды >> Россия >> Нижегородская область >> Нижний Новгород


АРХИВ ПОГОДЫ в Нижнем Новгороде

Время (UTC), дата Ветер
(напр.,м/с)
 
Видим.   Явления Облачность Т
(С)
Тd
(С)
f
(%)
Тe
(С)
Тes
(С)
Комфортность P
(гПа)
Po
(гПа)
Тmin
(С)
Tmax
(С)
R
(мм)
R24
(мм)
S
(см)
03 16.04 штиль 0
{2}
10 км ясно +2.3 -4.0 63 +2 +2 по сезону 1019.4 999.7 +2.0
06 16.04 З 1-2
{2}
10 км ясно +10.2 -3.8 37 +10 +18 тепло 1018.9 999.8
09 16.04 С 1-4
{4}
10 км 1/0
[Ci fib]
+14.2 -6.7 23 +15 +28 опасность
простуды
1018.4 999.5
12 16.04 С 2-4
{6}
10 км ясно +15.5 -9.8 17 +16 +23 тепло 1017.4 998.6
15 16.04 С 1-2
{4}
10 км ясно +15.2 -6.0 23 +16 +17 тепло 1016.0 997.2 +16.0
18 16.04 штиль 0
{4}
10 км 9/0
[Ac trans]
+10.2 -3.8 37 +10 +10 тепло 1016.6 997.7
21 16.04 штиль 0
{1}
10 км 4/0
[Ac trans]
+8.4 -5.4 37 +8 +8 тепло 1016.0 997.2
00 17.04 Ю 1-1
{2}
10 км 3/3 1000 м
[Sc diur, vesp]
+8.4 -5.4 37 +8 +8 тепло 1015.9 997.1
03 17.04 штиль 0
{2}
10 км ясно +7.4 -4.7 42 +7 +8 тепло 1016.1 996.9 +6.4
06 17.04 Ю 1-2
{2}
10 км ясно +15.8 -3.0 27 +17 +25 тепло 1015.8 997.1
09 17.04 З 1-4
{5}
10 км 4/4 1000 м
[Cu hum]
+18.2 -5.0 20 +19 +27 тепло 1015.3 996.8
12 17.04 СЗ 2-4
{5}
10 км 3/3 1000 м
[Cu hum]
+19.7 -2.7 22 +20 +25 тепло 1014.4 996.0
15 17.04 С 2-5
{6}
10 км 8/0
[Ac trans Ci fib]
+17.7 -3.8 23 +18 +19 тепло 1014.3 995.8 +20.2
18 17.04 СВ 1-3
{5}
10 км 6/0
[Cb calv]
+14.2 -4.4 27 +15 +15 тепло 1015.3 996.5
21 17.04 В 2-5
{6}
10 км 3/0
[Ci fib]
+11.8 -4.7 31 +11 +11 тепло 1015.3 996.4
00 18.04 В 2-4
{6}
10 км 6/0
[Ac trans]
+8.9 -3.8 41 +8 +8 тепло 1015.0 995.9
03 18.04 В 3-6
{6}
10 км 8/4 1000 м
[Sc Ac trans Ci fib]
+7.0 -3.0 49 +5 +5 по сезону 1014.2 995.0 +7.0
06 18.04 ЮВ 2-5
{7}
10 км 10/3 1000 м
[Sc As op]
+8.0 -0.7 54 +7 +7 по сезону 1013.3 994.1
09 18.04 В 2-5
{6}
10 км 10/3 600 м
[Sc As op]
+10.3 -1.4 44 +9 +11 по сезону 1012.5 993.4
12 18.04 В 3-5
{6}
10 км 10/4 600 м
[Sc As op]
+11.1 -0.9 43 +10 +10 по сезону 1011.8 992.9
15 18.04 В 4-6
{8}
10 км слабый дождь 10/6 600 м
[Sc As op]
+9.6 +1.1 55 +7 +7 по сезону 1010.3 991.3 +12.0 0.0
18 18.04 СВ 2-4
{7}
10 км слабый дождь 10/8 600 м
[Sc As op]
+7.8 +3.8 76 +6 +6 по сезону 1008.7 989.6
21 18.04 В 3-5
{7}
10 км {дождь} 10/8 600 м
[Sc As op]
+8.5 +1.7 62 +6 +6 по сезону 1006.1 987.2
00 19.04 В 3-6
{7}
10 км {дождь} 10/8 600 м
[Sc As op]
+7.0 -0.5 59 +4 +4 по сезону 1003.8 984.8
03 19.04 СВ 3-6
{8}
10 км слабый дождь 10/8 600 м
[Sc As op]
+3.8 +2.8 93 -0 -0 прохладно 1002.6 983.3 +3.8 2
06 19.04 СВ 4-7
{8}
4000 м слабый дождь 10/10 300 м
[Frnb Ns]
+3.8 +3.1 95 -1 -1 холодно 1001.8 982.5 +3.5
09 19.04 СВ 3-7
{8}
4000 м слабый дождь 10/10 300 м
[Frnb]
+5.0 +4.5 97 +1 +1 холодно 1001.9 982.8
12 19.04 СВ 3-6
{8}
4000 м слабый дождь 10/9 300 м
[Frnb Ac As]
+5.9 +5.4 97 +2 +3 холодно 1002.6 983.6
15 19.04 СВ 2-6
{7}
4000 м слабый дождь 10/9 300 м
[Frnb Ac As]
+6.5 +5.8 95 +4 +4 прохладно 1003.0 984.0 +6.5 11
18 19.04 СВ 1-3
{7}
4000 м слабый дождь 10/10 200 м
[Frnb]
+6.9 +6.0 94 +6 +6 по сезону 1004.2 985.2
21 19.04 СВ 2-3
{7}
10 км 8/0
[Ac lent]
+7.0 +4.0 81 +5 +5 по сезону 1004.9 985.9
00 20.04 СВ 3-6
{7}
10 км ясно +6.9 +3.6 79 +4 +4 по сезону 1006.3 987.1
03 20.04 С 3-8
{8}
10 км 3/0
[Ci fib]
+3.9 -3.1 60 +1 +1 прохладно 1008.2 988.9 +3.4
06 20.04 С 4-7
{10}
10 км 8/0
[Ci]
+7.0 -3.0 49 +4 +8 по сезону 1009.5 990.4
09 20.04 С 3-9
{9}
10 км 3/3 1000 м
[Cu hum]
+8.4 -5.0 38 +7 +13 по сезону 1010.1 991.1
12 20.04 С 3-8
{9}
10 км ясно +9.0 -9.8 25 +7 +14 прохладно 1010.5 991.5
15 20.04 С 2-5
{9}
10 км 1/0
[Ci fib]
+8.2 -11.2 24 +7 +8 по сезону 1010.8 991.7 +9.5
18 20.04 С 1-3
{6}
10 км 1/1 1000 м
[Sc diur, vesp]
+4.9 -9.6 34 +5 +5 по сезону 1011.6 992.3
21 20.04 СВ 1-2
{3}
10 км 8/8 1000 м
[Sc diur, vesp]
+2.9 -8.6 42 +2 +2 по сезону 1011.1 991.7
00 21.04 ЮВ 1-1
{2}
10 км 3/3 1000 м
[Sc diur, vesp]
+0.5 -7.8 54 -1 -1 прохладно 1009.8 990.2
03 21.04 ЮВ 1-2
{2}
10 км 9/0
[Ac lent Cs]
+0.4 -6.6 59 -1 -1 холодно 1007.9 988.3 0.0
06 21.04 ЮЗ 2-6
{6}
10 км слабый дождь 10/0
[As trans]
+4.7 -5.3 48 +3 +6 прохладно 1005.1 985.9
09 21.04 Ю 3-7
{11}
10 км слабый дождь 10/10 600 м
[Sc]
+4.6 +1.0 77 +1 +1 холодно 1000.3 981.2
12 21.04 Ю 4-9
{11}
10 км в посл. час дождь 10/8 300 м
[Sc Ac As]
+4.6 +3.1 90 0 +1 очень
холодно
994.2 975.2
15 21.04 Ю 3-8
{11}
10 км {дождь} 9/3 600 м
[Sc Ac trans Ci fib]
+8.4 +5.3 81 +6 +6 по сезону 987.7 969.1 +8.4 5
18 21.04 З 2-5
{11}
10 км слабый ливневой дождь 10/8 600 м
[Cb cap Ac As]
+10.5 +7.1 79 +9 +9 по сезону 983.3 964.9
21 21.04 З 3-9
{9}
10 км в посл. час ливневой дождь 10/10 300 м
[Cb cap]
+9.0 +8.1 94 +6 +6 по сезону 979.9 961.5
00 22.04 З 3-10
{10}
10 км {ливн. осадки} 10/10 300 м
[Sc]
+8.0 +6.1 88 +5 +5 по сезону 979.4 961.0
03 22.04 СЗ 3-9
{11}
10 км в посл. час дождь 10/10 300 м
[Frnb]
+2.8 +1.5 91 -1 -1 холодно 980.9 962.1 +2.8 12
06 22.04 СЗ 4-8
{11}
4000 м слабый снег {ливн. осадки} 10/10 200 м
[Frnb]
+0.1 -0.2 98 -6 -6 очень
холодно
984.3 965.1 0.0
09 22.04 СЗ 3-9
{13}
2000 м снег 10/10 200 м
[Frnb]
-0.8 -1.8 93 -6 -6 очень
холодно
988.7 969.4
12 22.04 СЗ 5-11
{14}
4100 м слабый снег 10/10 300 м
[Frnb]
-0.3 -2.1 88 -7 -7 очень
холодно
992.6 973.2
15 22.04 СЗ 4-11
{12}
10 км слабый снег 10/8 300 м
[Frnb Ac trans]
-0.2 -2.6 84 -6 -6 очень
холодно
996.2 976.8 +2.8 2
18 22.04 СЗ 4-9
{11}
10 км слабый снег 10/8 300 м
[St Ac trans]
-1.1 -4.0 81 -7 -7 очень
холодно
999.1 979.6
21 22.04 СЗ 4-8
{11}
10 км {снег} 8/8 300 м
[St]
-1.4 -4.4 80 -7 -7 очень
холодно
1000.4 980.9

 

Местоположение метеостанции Нижний Новгород (Нижегородская область, Россия): широта 56.27 долгота 44.00 высота над уровнем моря 157 м.

В архиве по умолчанию представлена погода в Нижнем Новгороде за последнюю неделю. Архивные данные за месяц целиком и за предыдущие месяцы, начиная с января 2011 года, Вы можете получить, выбрав интересующий диапазон дат из раскрывающегося списка и нажав кнопку "Ввод!".


*Определитесь, кто Вы:
робот инопланетянин человек

Внимание! Время в таблицах - всемирное. Для получения местного времени необходимо прибавить поправку, которая в Нижнем Новгороде равна 3 ч.

Смотрите также архив погоды в соседних городах и на ближайших метеорологических станциях:

Погода в Нижнем Новгороде аэропорт (Нижегородская область, Россия) (15 км)
Погода в Дальнем Константиново (Нижегородская область, Россия) (53 км)
Погода в Волжской ГМО (Нижегородская область, Россия) (57 км)
Погода в Семенове (Нижегородская область, Россия) (60 км)
Погода в Павлово (Нижегородская область, Россия) (70 км)
Погода в Лысково (Нижегородская область, Россия) (70 км)
Погода в Арзамасе (Нижегородская область, Россия) (101 км)
Погода в Воскресенском (Нижегородская область, Россия) (106 км)
Погода в Вязниках (Владимирская область, Россия) (113 км)
Погода в Красных Баках (Нижегородская область, Россия) (119 км)

Пояснения к столбцам:

Ветер - указаны скорость ветра в м/с - средняя за 10 мин, порывы в срок и между сроками (в фигурных скобках) и направление, откуда дует ветер: С - северный, СВ - северо-восточный, В - восточный, ЮВ - юго-восточный, Ю - южный, ЮЗ - юго-западный, З - западный, СЗ - северо-западный.
Видимость - горизонтальная дальность видимости в метрах или километрах. При видимости от 1 до 10 км при отсутствии осадков обычно наблюдается дымка, при ухудшении видимости до 1 км и менее - туман. В сухую погоду видимость может ухудшаться дымом, пылью или мглою.
Явления - указаны атмосферные явления, наблюдавшиеся в срок или в последний час перед сроком; фигурными скобками обозначены явления, наблюдавшиеся между сроками (за 1-3 часа до срока); квадратными скобками обозначены град или гололедные отложения с указанием их диаметра в мм.
Облачность - указаны через наклонную черту общая и нижняя облачность в баллах и высота нижней границы облаков в метрах; квадратными скобками обозначены формы облаков: Ci - перистые, Cs - перисто-слоистые, Cc - перисто-кучевые, Ac - высококучевые, As - высокослоистые, Sc - слоисто-кучевые, Ns - слоисто-дождевые, Cu - кучевые, Cb - кучево-дождевые. Подробнее классификацию облаков см. в Атласе облаков (PDF).
T - Температура воздуха - температура, измеренная на высоте 2 м над землей.
Td - Температура точки росы - температура, при понижении до которой содержащийся в воздухе водяной пар достигнет насыщения.
f - Относительная влажность воздуха - влажноcть воздуха, измеренная на высоте 2 м над землей.
Te - Эффективная температура - температура, которую ощущает одетый по сезону человек в тени. Характеристика душности погоды. При расчете учитывается влияние влажности воздуха и скорости ветра на теплоощущения человека.
Tes - Эффективная температура на солнце - температура, которую ощущает человек, с поправкой на солнечный нагрев. Характеристика знойности погоды. Зависит от высоты солнца над горизонтом, облачности и скорости ветра. Ночью, в пасмурную погоду, а также при ветре 12 м/с и более поправка равна нулю.
P - Атмосферное давление - приведенное к уровню моря атмосферное давление.
Po - Атмосферное давление - измеренное на уровне метеостанции атмосферное давление.
Tmin - Минимальная температура - минимум температуры воздуха на высоте 2 м над землей.
Tmax - Максимальная температура - максимум температуры воздуха на высоте 2 м над землей.
R - Количество осадков - Количество выпавших осадков за период времени, мм. При наведении курсора мыши на число - период времени, за который выпало указанное количество осадков.
R24 - Количество осадков - Количество выпавших осадков за 24 часа, мм.
S - Снежный покров - Высота снежного покрова, см. При наведении курсора мыши на число - состояние снежного покрова и степень покрытия местности в баллах.